Stündliche Wetter Bolshie Kuliki

Heute, 29 Juli, Donnerstag

Zeit Temperatur Niederschläge Wind Luftdruck Luftfeuchtigkeit
00:00 +19°C° 0 mm 2 m/S 747 mmHg 85%
01:00 +19°C° 0.1 mm 2 m/S 747 mmHg 86%
02:00 +19°C° 0.1 mm 2 m/S 747 mmHg 87%
03:00 +19°C° 0 mm 2 m/S 747 mmHg 88%
04:00 +19°C° 0.1 mm 2 m/S 746 mmHg 88%
05:00 +19°C° 0.1 mm 2 m/S 746 mmHg 88%
06:00 +19°C° 0.1 mm 2 m/S 746 mmHg 88%
07:00 +21°C° 0 mm 3 m/S 745 mmHg 79%
08:00 +24°C° 0 mm 3 m/S 745 mmHg 70%
09:00 +25°C° 0 mm 4 m/S 745 mmHg 61%
10:00 +27°C° 0 mm 4 m/S 745 mmHg 56%
11:00 +28°C° 0 mm 5 m/S 744 mmHg 51%
12:00 +30°C° 0 mm 5 m/S 744 mmHg 46%
13:00 +29°C° 0 mm 5 m/S 744 mmHg 48%
14:00 +29°C° 0 mm 5 m/S 744 mmHg 49%
15:00 +29°C° 0 mm 5 m/S 744 mmHg 51%
16:00 +29°C° 0 mm 4 m/S 743 mmHg 52%
17:00 +28°C° 0 mm 4 m/S 743 mmHg 53%
18:00 +28°C° 0 mm 3 m/S 743 mmHg 54%
19:00 +27°C° 0 mm 3 m/S 743 mmHg 59%
20:00 +25°C° 0 mm 2 m/S 743 mmHg 65%
21:00 +24°C° 0 mm 2 m/S 744 mmHg 70%
22:00 +23°C° 0 mm 1 m/S 744 mmHg 73%
23:00 +22°C° 0 mm 1 m/S 744 mmHg 75%

Morgen, 30 Juli, Freitag

Zeit Temperatur Niederschläge Wind Luftdruck Luftfeuchtigkeit
00:00 +21°C° 0 mm 1 m/S 744 mmHg 78%
01:00 +21°C° 0 mm 1 m/S 744 mmHg 79%
02:00 +21°C° 0 mm 1 m/S 744 mmHg 80%
03:00 +21°C° 0 mm 1 m/S 744 mmHg 81%
04:00 +21°C° 0 mm 1 m/S 744 mmHg 79%
05:00 +22°C° 0 mm 1 m/S 744 mmHg 78%
06:00 +22°C° 0 mm 1 m/S 744 mmHg 77%
07:00 +24°C° 0 mm 2 m/S 744 mmHg 68%
08:00 +26°C° 0 mm 2 m/S 744 mmHg 60%
09:00 +29°C° 0 mm 2 m/S 743 mmHg 51%
10:00 +30°C° 0 mm 3 m/S 743 mmHg 47%
11:00 +32°C° 0 mm 4 m/S 743 mmHg 42%
12:00 +33°C° 0 mm 4 m/S 743 mmHg 38%
13:00 +33°C° 0 mm 4 m/S 742 mmHg 40%
14:00 +33°C° 0 mm 4 m/S 742 mmHg 41%
15:00 +33°C° 0 mm 5 m/S 741 mmHg 43%
16:00 +30°C° 0.8 mm 4 m/S 741 mmHg 50%
17:00 +29°C° 0.8 mm 3 m/S 741 mmHg 57%
18:00 +27°C° 0.8 mm 3 m/S 741 mmHg 65%
19:00 +26°C° 0.7 mm 2 m/S 741 mmHg 73%
20:00 +24°C° 0.7 mm 2 m/S 741 mmHg 81%
21:00 +22°C° 0.7 mm 1 m/S 742 mmHg 88%
22:00 +21°C° 0 mm 2 m/S 742 mmHg 89%
23:00 +20°C° 0 mm 2 m/S 742 mmHg 90%

übermorgen, 31 Juli, Samstag

Zeit Temperatur Niederschläge Wind Luftdruck Luftfeuchtigkeit
00:00 +20°C° 0 mm 3 m/S 742 mmHg 91%
01:00 +20°C° 0 mm 3 m/S 742 mmHg 93%
02:00 +19°C° 0 mm 3 m/S 742 mmHg 94%
03:00 +19°C° 0 mm 3 m/S 743 mmHg 96%
04:00 +19°C° 0 mm 3 m/S 743 mmHg 94%
05:00 +19°C° 0 mm 3 m/S 743 mmHg 92%
06:00 +19°C° 0 mm 3 m/S 743 mmHg 91%
07:00 +21°C° 0 mm 3 m/S 744 mmHg 79%
08:00 +23°C° 0 mm 4 m/S 744 mmHg 67%
09:00 +25°C° 0 mm 4 m/S 744 mmHg 55%
10:00 +26°C° 0 mm 5 m/S 744 mmHg 48%
11:00 +28°C° 0 mm 5 m/S 744 mmHg 42%
12:00 +29°C° 0 mm 6 m/S 745 mmHg 35%
13:00 +29°C° 0 mm 6 m/S 744 mmHg 34%
14:00 +30°C° 0 mm 6 m/S 744 mmHg 32%
15:00 +32°C° 0 mm 5 m/S 744 mmHg 31%
16:00 +30°C° 0 mm 5 m/S 744 mmHg 35%
17:00 +29°C° 0 mm 4 m/S 744 mmHg 39%
18:00 +29°C° 0 mm 4 m/S 744 mmHg 42%
19:00 +27°C° 0 mm 3 m/S 745 mmHg 47%
20:00 +26°C° 0 mm 3 m/S 745 mmHg 51%
21:00 +24°C° 0 mm 2 m/S 745 mmHg 55%
22:00 +23°C° 0 mm 2 m/S 746 mmHg 58%
23:00 +21°C° 0 mm 2 m/S 746 mmHg 61%

1 August, Sonntag

Zeit Temperatur Niederschläge Wind Luftdruck Luftfeuchtigkeit
00:00 +20°C° 0 mm 2 m/S 746 mmHg 64%
01:00 +20°C° 0 mm 2 m/S 746 mmHg 65%
02:00 +19°C° 0 mm 2 m/S 747 mmHg 66%
03:00 +19°C° 0 mm 2 m/S 747 mmHg 67%
04:00 +19°C° 0 mm 2 m/S 747 mmHg 67%
05:00 +19°C° 0 mm 2 m/S 747 mmHg 66%
06:00 +20°C° 0 mm 2 m/S 748 mmHg 65%
07:00 +23°C° 0 mm 2 m/S 748 mmHg 58%
08:00 +25°C° 0 mm 3 m/S 748 mmHg 52%
09:00 +27°C° 0 mm 3 m/S 748 mmHg 45%
10:00 +29°C° 0 mm 3 m/S 748 mmHg 42%
11:00 +30°C° 0 mm 3 m/S 748 mmHg 39%
12:00 +33°C° 0 mm 3 m/S 748 mmHg 35%
13:00 +33°C° 0 mm 3 m/S 748 mmHg 33%
14:00 +34°C° 0 mm 3 m/S 747 mmHg 31%
15:00 +35°C° 0 mm 4 m/S 747 mmHg 29%
16:00 +34°C° 0 mm 4 m/S 747 mmHg 30%
17:00 +34°C° 0 mm 4 m/S 747 mmHg 32%
18:00 +33°C° 0 mm 4 m/S 746 mmHg 34%
19:00 +32°C° 0 mm 4 m/S 746 mmHg 36%
20:00 +29°C° 0 mm 4 m/S 746 mmHg 39%
21:00 +28°C° 0 mm 4 m/S 746 mmHg 42%
22:00 +27°C° 0 mm 4 m/S 746 mmHg 45%
23:00 +25°C° 0 mm 4 m/S 746 mmHg 48%

2 August, Montag

Zeit Temperatur Niederschläge Wind Luftdruck Luftfeuchtigkeit
00:00 +24°C° 0 mm 3 m/S 746 mmHg 51%
01:00 +24°C° 0 mm 3 m/S 746 mmHg 52%
02:00 +24°C° 0 mm 3 m/S 746 mmHg 53%
03:00 +24°C° 0 mm 3 m/S 746 mmHg 54%
04:00 +22°C° 0 mm 3 m/S 746 mmHg 57%
05:00 +23°C° 0 mm 2 m/S 746 mmHg 61%
06:00 +23°C° 0 mm 2 m/S 746 mmHg 64%
07:00 +25°C° 0.1 mm 3 m/S 746 mmHg 58%
08:00 +27°C° 0.1 mm 3 m/S 746 mmHg 52%
09:00 +29°C° 0.1 mm 4 m/S 746 mmHg 46%
10:00 +32°C° 0 mm 4 m/S 746 mmHg 41%
11:00 +34°C° 0 mm 5 m/S 746 mmHg 35%
12:00 +36°C° 0 mm 5 m/S 746 mmHg 30%
13:00 +37°C° 0 mm 5 m/S 745 mmHg 28%
14:00 +37°C° 0 mm 5 m/S 745 mmHg 26%
15:00 +39°C° 0 mm 5 m/S 745 mmHg 23%
16:00 +37°C° 0 mm 4 m/S 744 mmHg 26%
17:00 +36°C° 0 mm 3 m/S 744 mmHg 28%
18:00 +35°C° 0 mm 3 m/S 744 mmHg 30%
19:00 +33°C° 0 mm 3 m/S 743 mmHg 34%
20:00 +30°C° 0 mm 4 m/S 743 mmHg 38%
21:00 +29°C° 0 mm 4 m/S 743 mmHg 42%
22:00 +28°C° 0 mm 5 m/S 744 mmHg 47%
23:00 +26°C° 0 mm 5 m/S 744 mmHg 53%

3 August, Dienstag

Zeit Temperatur Niederschläge Wind Luftdruck Luftfeuchtigkeit
00:00 +24°C° 0 mm 6 m/S 744 mmHg 58%
01:00 +23°C° 0 mm 4 m/S 744 mmHg 63%
02:00 +24°C° 0 mm 3 m/S 744 mmHg 69%
03:00 +23°C° 0 mm 1 m/S 744 mmHg 74%
04:00 +23°C° 0 mm 2 m/S 744 mmHg 73%
05:00 +24°C° 0 mm 2 m/S 744 mmHg 71%
06:00 +24°C° 0 mm 3 m/S 744 mmHg 70%
07:00 +23°C° 0.1 mm 4 m/S 744 mmHg 71%
08:00 +23°C° 0.1 mm 5 m/S 744 mmHg 73%
09:00 +23°C° 0.1 mm 6 m/S 745 mmHg 74%
10:00 +23°C° 0 mm 5 m/S 745 mmHg 71%
11:00 +23°C° 0 mm 5 m/S 745 mmHg 69%
12:00 +23°C° 0 mm 5 m/S 746 mmHg 66%
13:00 +26°C° 0 mm 5 m/S 746 mmHg 58%
14:00 +27°C° 0 mm 5 m/S 746 mmHg 51%
15:00 +29°C° 0 mm 5 m/S 746 mmHg 43%
16:00 +28°C° 0 mm 5 m/S 746 mmHg 44%
17:00 +27°C° 0 mm 5 m/S 746 mmHg 45%
18:00 +27°C° 0 mm 5 m/S 746 mmHg 46%
19:00 +25°C° 0 mm 4 m/S 746 mmHg 51%
20:00 +22°C° 0 mm 3 m/S 747 mmHg 56%
21:00 +20°C° 0 mm 3 m/S 747 mmHg 61%
22:00 +20°C° 0 mm 2 m/S 747 mmHg 62%
23:00 +19°C° 0 mm 2 m/S 748 mmHg 64%
Mehr zeigen

Wir brauchen deine Erlaubnis

Meteoprog und unser Service Anbieter werden persönliche Daten aufbewahren, so wie Cookies, Geräte Bezeichnung oder ähnliche Technologien von deinem Gerät und Prozess, so wie Persönliche Daten Inhalte und Werbungen, genauso wie social Media und den Verkehr zu analysieren.

  • Aufbewahrung und/oder Zugang zu deiner Geräte Informationen.

    Cookies, Geräte Bezeichnung oder andere Informationen, können aufbewahrt oder Zugang zu deinem Gerät erhalten, für den Grund, der oben angegeben wird.

  • Personalisierte Werbung und Inhalte, Messungen, Einblick in das Publikum und Produkt Entwicklung.

    Werbungen und Inhalte können personalisiert werden, basierend auf ein Profil. Mehr Daten können besser personalisierte Werbungen und Inhalte hinzufügen. Werbung und Inhalte können gezeigt und gemessen werden. Einblicke über das Publikum, welche die Werbung gesehen haben und den Inhalt, können abgeleitet werden. So wie Daten können genutzt werden, um es zu verbessern oder die Benutzer Erfahrung zu verbessern das System und die Software.

Wenn du “Ich stimme zu” klickst, erlaubst du uns, die Cookies zu benutzen die Geräte Bezeichnung, den Web oder ähnliche Technologien zu benutzen. Deine Settings, können in deinem Gerät bei deinem Browser geändert werden.

Für den bestimmten Zweck, berechtigten Interessen beruhen darauf, mehr als auf den Inhalt. Du kannst mehr darüber in unseren Privaten und Cookie Politik lesen.